Content
SEND FEEDBACK

Daily
Averages
Monthly
Summary
Germany

OSTFILDERN, GERMANY


Home > Europe > Germany
Elevation: 1283 feet     Latitude: 48 40N     Longitude: 009 13E

WEATHER
 
SELECT A DAY
Number of Records: 137,401;   Date Range: 7/9/96 - 10/23/14
 
SHARE

PRINT THIS DATA

[ ← Previous Day ]
WEATHER ALMANAC - JANUARY 31, 2013
[ Next Day → ]
[ °C ]   °F
Weather ElementAverageHighLow
Temperature45 °F50 °F (1:20 pm)39.2 °F (6:50 am)
Dewpoint33.9 °F39.2 °F (7:20 pm)30.2 °F (6:20 am)
Humidity63.1 %81 % (7:20 pm)36 % (3:00 pm)
Barometer30.10 in30.22 in (7:00 am)29.98 in (3:50 pm)
Wind Speed11.7 mph20.7 mph (12:20 am)
Wind Gust33.4 mph (5:50 pm)
Weather ElementAverage
Visibility17.4 mi
Wind DirectionSSW (218.4 °)

Weather ElementTotal
Precipitation---
Heating Degree Days20.4 (Base 65)
Averaged from 67 records on January 31, 2013
WEATHER CONDITIONS BREAKOUT
WIND DIRECTION BREAKOUT
WEATHER BY HOUR - JANUARY 31, 2013
[ °C ]   °F
Local TimeTemperatureDewpointHumidityBarometerVisibilityWind DirectionWind SpeedGust SpeedPrecipitationEventsConditions
12:20 AM46.4 °F33.8 °F62 %30.12 in6.2 miWSW (250°)20.7 mph32.2 mphPartly Cloudy
12:50 AM44.6 °F32.0 °F61 %30.15 in6.2 miWSW (250°)17.3 mphScattered Clouds
1:00 AM45.0 °F33.0 °F53 %30.19 in37.0 miWSW (250°)17.9 mphPartly Cloudy
1:20 AM44.6 °F32.0 °F61 %30.15 in6.2 miWSW (250°)16.1 mphPartly Cloudy
1:50 AM42.8 °F32.0 °F66 %30.15 inWSW (250°)15.0 mphClear
2:00 AM43.0 °F33.0 °F57 %30.20 in37.0 miWSW (240°)13.4 mphClear
2:20 AM44.6 °F32.0 °F61 %30.15 inSW (230°)9.2 mphClear
2:50 AM44.6 °F33.8 °F66 %30.15 inSW (220°)10.4 mphClear
3:00 AM44.0 °F35.0 °F59 %30.20 in37.0 miSW (220°)11.2 mphScattered Clouds
3:20 AM42.8 °F33.8 °F70 %30.15 in6.2 miSW (230°)13.8 mph25.3 mphPartly Cloudy
3:50 AM42.8 °F33.8 °F70 %30.15 inWSW (240°)12.7 mphClear
4:20 AM42.8 °F32.0 °F66 %30.15 inWSW (240°)8.1 mphClear
4:50 AM41.0 °F32.0 °F70 %30.15 inWSW (250°)9.2 mphClear
5:00 AM41.0 °F33.0 °F64 %30.21 in37.0 miWSW (250°)8.9 mphScattered Clouds
5:20 AM41.0 °F32.0 °F70 %30.15 inWSW (240°)10.4 mphClear
5:50 AM41.0 °F32.0 °F70 %30.15 inWSW (250°)10.4 mphClear
6:00 AM41.0 °F32.0 °F62 %30.20 in37.0 miWSW (250°)11.2 mphScattered Clouds
6:20 AM41.0 °F30.2 °F65 %30.15 inVariable2.3 mphClear
6:50 AM39.2 °F30.2 °F70 %30.15 inSE (140°)3.5 mphClear
7:00 AM40.0 °F31.0 °F61 %30.22 in37.0 miSE (140°)2.2 mphScattered Clouds
7:20 AM39.2 °F30.2 °F70 %30.18 inSSW (200°)4.6 mphClear
7:50 AM41.0 °F32.0 °F70 %30.18 in6.2 miSSW (210°)6.9 mphMostly Cloudy
8:00 AM40.0 °F32.0 °F64 %30.22 in44.0 miSSW (210°)6.7 mphScattered Clouds
8:20 AM41.0 °F32.0 °F70 %30.18 in6.2 miSSW (200°)6.9 mphMostly Cloudy
8:50 AM41.0 °F33.8 °F76 %30.18 in6.2 miSouth (190°)8.1 mphMostly Cloudy
9:00 AM41.0 °F34.0 °F67 %30.22 in37.0 miSouth (190°)8.9 mphScattered Clouds
9:20 AM41.0 °F33.8 °F76 %30.18 in6.2 miSouth (190°)6.9 mphMostly Cloudy
9:50 AM42.8 °F35.6 °F76 %30.18 in6.2 miSE (140°)5.8 mphMostly Cloudy
10:20 AM44.6 °F32.0 °F61 %30.15 in6.2 miSW (230°)10.4 mphMostly Cloudy
10:50 AM44.6 °F33.8 °F66 %30.15 in6.2 miSSW (210°)8.1 mphMostly Cloudy
11:00 AM44.0 °F34.0 °F57 %30.19 in37.0 miSSW (200°)8.9 mphScattered Clouds
11:20 AM44.6 °F33.8 °F66 %30.12 in6.2 miSSW (200°)8.1 mphMostly Cloudy
11:50 AM46.4 °F33.8 °F62 %30.12 in6.2 miSW (220°)10.4 mphMostly Cloudy
12:00 PM47.0 °F36.0 °F54 %30.14 in37.0 miSW (220°)11.2 mphScattered Clouds
12:20 PM48.2 °F35.6 °F62 %30.09 in6.2 miSW (220°)12.7 mphMostly Cloudy
12:50 PM48.2 °F33.8 °F58 %30.06 in6.2 miSSW (210°)11.5 mphMostly Cloudy
1:00 PM49.0 °F35.0 °F48 %30.09 in44.0 miSSW (210°)11.2 mphScattered Clouds
1:20 PM50.0 °F32.0 °F50 %30.06 in6.2 miSW (220°)13.8 mphMostly Cloudy
1:50 PM50.0 °F32.0 °F50 %30.04 in6.2 miSW (220°)16.1 mphMostly Cloudy
2:00 PM49.0 °F33.0 °F43 %30.06 in44.0 miSW (220°)15.7 mphScattered Clouds
2:20 PM50.0 °F32.0 °F50 %30.04 in6.2 miSW (220°)12.7 mph25.3 mphMostly Cloudy
2:50 PM50.0 °F30.2 °F47 %30.01 in6.2 miSW (220°)16.1 mph29.9 mphMostly Cloudy
3:00 PM50.0 °F31.0 °F36 %30.03 in44.0 miSW (220°)15.7 mphScattered Clouds
3:20 PM50.0 °F30.2 °F47 %30.01 in6.2 miSW (220°)17.3 mph32.2 mphMostly Cloudy
3:50 PM50.0 °F30.2 °F47 %29.98 in6.2 miSW (220°)17.3 mph29.9 mphMostly Cloudy
4:20 PM48.2 °F30.2 °F50 %29.98 in6.2 miSW (220°)13.8 mphMostly Cloudy
4:50 PM48.2 °F32.0 °F54 %29.98 in6.2 miSW (230°)18.4 mphMostly Cloudy
5:00 PM49.0 °F33.0 °F43 %30.00 in44.0 miSW (230°)17.9 mphMostly Cloudy
5:20 PM48.2 °F33.8 °F58 %29.98 in6.2 miSW (230°)19.6 mph31.1 mphMostly Cloudy
5:50 PM48.2 °F35.6 °F62 %30.01 in6.2 miWSW (240°)19.6 mph33.4 mphRainLight Rain
6:00 PM48.0 °F35.0 °F51 %30.02 in44.0 miWSW (240°)20.1 mphRainLight Rain
6:20 PM46.4 °F35.6 °F66 %30.01 in6.2 miWSW (240°)19.6 mph32.2 mphMostly Cloudy
6:50 PM46.4 °F37.4 °F71 %30.01 in6.2 miWSW (240°)12.7 mphMostly Cloudy
7:00 PM46.0 °F37.0 °F63 %30.04 in44.0 miWSW (240°)13.4 mphRainLight Rain
7:20 PM44.6 °F39.2 °F81 %30.04 in6.2 miWSW (240°)11.5 mphRainLight Rain
7:50 PM46.4 °F37.4 °F71 %30.04 in6.2 miSW (230°)12.7 mphMostly Cloudy
8:00 PM46.0 °F38.0 °F67 %30.06 in37.0 miSW (230°)11.2 mphRainLight Rain
8:20 PM46.4 °F37.4 °F71 %30.04 in6.2 miSW (220°)9.2 mphRainLight Rain
8:50 PM46.4 °F37.4 °F71 %30.04 in6.2 miSW (220°)11.5 mphRainLight Rain
9:00 PM46.0 °F38.0 °F66 %30.06 in37.0 miSW (220°)11.2 mphRainLight Rain
9:20 PM44.6 °F39.2 °F81 %30.04 in6.2 miSW (230°)11.5 mphRainLight Rain
9:50 PM44.6 °F37.4 °F76 %30.01 in6.2 miSW (230°)13.8 mph25.3 mphRainLight Rain
10:20 PM44.6 °F37.4 °F76 %30.04 in6.2 miWSW (250°)11.5 mphRainLight Rain
10:50 PM44.6 °F37.4 °F76 %30.04 in6.2 miSSW (210°)8.1 mphMostly Cloudy
11:00 PM44.0 °F38.0 °F73 %30.07 in31.0 miSSW (210°)6.7 mphRainLight Rain
11:20 PM44.6 °F35.6 °F71 %30.04 in6.2 miSW (230°)8.1 mphMostly Cloudy
11:50 PM44.6 °F35.6 °F71 %30.04 in6.2 miSSW (200°)6.9 mphMostly Cloudy
Hourly data recorded from EDDS, located miles away from Ostfildern, Germany







STORIES FROM OUR PARTNERS